20050712,000017,1135923,33.587916,-120.764175,14.445,33.351,0.684,0.862
20050712,000047,1135952,33.587995,-120.764220,14.442,33.345,0.673,0.844
20050712,000117,1135983,33.588056,-120.764291,14.446,33.344,0.733,0.951
20050712,000147,1136013,33.588111,-120.764348,14.443,33.347,0.744,0.969
20050712,000217,1136043,33.588163,-120.764405,14.440,33.351,0.766,1.012
20050712,000247,1136073,33.588225,-120.764438,14.438,33.345,0.760,1.016
20050712,000317,1136102,33.588260,-120.764460,14.442,33.344,0.766,1.025
20050712,000347,1136132,33.588295,-120.764463,14.451,33.362,0.749,0.997
20050712,000418,1136164,33.588336,-120.764451,14.452,33.368,0.760,1.024
20050712,000447,1136193,33.588363,-120.764436,14.450,33.367,0.793,1.080
20050712,000517,1136223,33.588358,-120.764441,14.449,33.366,0.820,1.123
20050712,000547,1136253,33.588298,-120.764465,14.447,33.369,0.804,1.096
20050712,000617,1136282,33.588196,-120.764510,14.446,33.368,0.798,1.077
20050712,000648,1136314,33.588091,-120.764593,14.447,33.365,0.815,1.123
20050712,000717,1136343,33.588016,-120.764696,14.449,33.366,0.831,1.150
20050712,000747,1136373,33.587956,-120.764806,14.447,33.366,0.787,1.064
20050712,000817,1136403,33.587908,-120.764870,14.445,33.368,0.847,1.183
20050712,000847,1136432,33.587836,-120.764961,14.450,33.364,0.787,1.067
20050712,000917,1136462,33.587790,-120.765026,14.455,33.362,0.689,0.889
20050712,000947,1136493,33.587791,-120.765153,14.458,33.365,0.662,0.830
20050712,001017,1136523,33.587861,-120.765261,14.459,33.367,0.651,0.806
20050712,001047,1136553,33.587973,-120.765296,14.456,33.371,0.651,0.804
20050712,001117,1136583,33.588046,-120.765261,14.460,33.365,0.667,0.836
20050712,001147,1136612,33.588101,-120.765143,14.469,33.362,0.678,0.859
20050712,001217,1136642,33.588156,-120.765000,14.473,33.364,0.678,0.859
20050712,001247,1136673,33.588250,-120.764855,14.473,33.373,0.700,0.902
20050712,001318,1136703,33.588358,-120.764718,14.471,33.366,0.684,0.867
20050712,001347,1136733,33.588460,-120.764601,14.468,33.370,0.706,0.902
20050712,001417,1136763,33.588561,-120.764503,14.460,33.374,0.695,0.882
20050712,001447,1136792,33.588631,-120.764501,14.454,33.369,0.678,0.851
20050712,001517,1136822,33.588688,-120.764461,14.459,33.365,0.733,0.947
20050712,001548,1136853,33.588713,-120.764490,14.460,33.363,0.728,0.939
20050712,001617,1136883,33.588733,-120.764478,14.462,33.364,0.766,1.022
20050712,001647,1136913,33.588705,-120.764431,14.461,33.365,0.793,1.084
20050712,001717,1136942,33.588658,-120.764458,14.459,33.363,0.836,1.163
20050712,001747,1136972,33.588625,-120.764536,14.460,33.362,0.825,1.135
20050712,001817,1137003,33.588653,-120.764631,14.459,33.364,0.825,1.127
20050712,001847,1137033,33.588723,-120.764730,14.458,33.365,0.874,1.225
20050712,001917,1137063,33.588853,-120.764746,14.458,33.362,0.858,1.191
20050712,001947,1137093,33.588998,-120.764731,14.455,33.360,0.825,1.116
20050712,002018,1137124,33.589156,-120.764721,14.450,33.365,0.798,1.068
20050712,002048,1137154,33.589278,-120.764801,14.452,33.363,0.766,1.001
20050712,002117,1137183,33.589353,-120.764956,14.451,33.363,0.749,0.973
20050712,002147,1137213,33.589435,-120.765126,14.450,33.363,0.793,1.055
20050712,002217,1137243,33.589590,-120.765250,14.445,33.365,0.804,1.082
20050712,002247,1137273,33.589763,-120.765333,14.447,33.360,0.787,1.048
20050712,002318,1137304,33.589991,-120.765385,14.450,33.359,0.798,1.063
20050712,002347,1137333,33.590246,-120.765511,14.450,33.359,0.809,1.089
20050712,002418,1137363,33.590421,-120.765600,14.447,33.359,0.825,1.125
20050712,002448,1137393,33.590526,-120.765663,14.450,33.354,0.793,1.071
20050712,002517,1137423,33.590613,-120.765753,14.449,33.359,0.777,1.040
20050712,002547,1137452,33.590730,-120.765828,14.442,33.365,0.787,1.059
20050712,002618,1137484,33.590886,-120.765918,14.440,33.358,0.798,1.075
20050712,002648,1137514,33.591031,-120.765955,14.437,33.361,0.804,1.090
20050712,002717,1137543,33.591121,-120.766001,14.435,33.358,0.815,1.114
20050712,002748,1137573,33.591218,-120.766015,14.435,33.350,0.787,1.063
20050712,002818,1137604,33.591253,-120.766070,14.437,33.353,0.793,1.079
20050712,002848,1137634,33.591313,-120.766118,14.435,33.354,0.760,1.016
20050712,002918,1137664,33.591381,-120.766141,14.427,33.360,0.815,1.130
20050712,002948,1137693,33.591450,-120.766190,14.424,33.395,0.820,1.144
20050712,003018,1137723,33.591503,-120.766201,14.424,33.386,0.793,1.096
20050712,003048,1137754,33.591578,-120.766233,14.424,33.389,0.815,1.135
20050712,003118,1137784,33.591691,-120.766321,14.430,33.384,0.804,1.102
20050712,003147,1137812,33.591791,-120.766351,14.430,33.391,0.804,1.110
20050712,003218,1137844,33.591908,-120.766423,14.430,33.388,0.809,1.127
20050712,003248,1137873,33.592025,-120.766485,14.425,33.391,0.793,1.084
20050712,003318,1137903,33.592123,-120.766561,14.423,33.391,0.760,1.018
20050712,003348,1137934,33.592235,-120.766636,14.426,33.387,0.766,1.021
20050712,003418,1137964,33.592336,-120.766665,14.432,33.383,0.749,0.990
20050712,003448,1137994,33.592436,-120.766735,14.435,33.385,0.787,1.058
20050712,003518,1138024,33.592541,-120.766798,14.432,33.398,0.777,1.034
20050712,003548,1138053,33.592646,-120.766866,14.430,33.401,0.793,1.074
20050712,003618,1138083,33.592753,-120.766910,14.428,33.402,0.804,1.087
20050712,003648,1138114,33.592863,-120.766956,14.432,33.398,0.815,1.109
20050712,003718,1138144,33.592953,-120.766998,14.432,33.401,0.793,1.061
20050712,003747,1138172,33.593073,-120.766981,14.430,33.402,0.842,1.143
20050712,003818,1138203,33.593175,-120.767006,14.424,33.406,0.842,1.141
20050712,003848,1138233,33.593278,-120.767055,14.425,33.401,0.815,1.093
20050712,003918,1138264,33.593366,-120.767098,14.427,33.398,0.836,1.138
20050712,003948,1138294,33.593461,-120.767163,14.426,33.399,0.820,1.121
20050712,004018,1138324,33.593630,-120.767253,14.420,33.401,0.809,1.117
20050712,004048,1138354,33.593816,-120.767406,14.418,33.400,0.885,1.265
20050712,004118,1138383,33.594038,-120.767620,14.422,33.398,0.820,1.135
20050712,004148,1138413,33.594268,-120.767840,14.424,33.395,0.853,1.189
20050712,004219,1138444,33.594530,-120.768088,14.427,33.397,0.842,1.167
20050712,004248,1138474,33.594771,-120.768333,14.424,33.398,0.809,1.131
20050712,004318,1138504,33.594966,-120.768563,14.428,33.396,0.787,1.088
20050712,004348,1138533,33.595091,-120.768758,14.430,33.395,0.831,1.147
20050712,004418,1138563,33.595188,-120.768890,14.432,33.396,0.809,1.096
20050712,004448,1138594,33.595225,-120.768975,14.438,33.392,0.809,1.103
20050712,004518,1138624,33.595231,-120.769041,14.441,33.395,0.782,1.042
20050712,004548,1138654,33.595256,-120.769115,14.442,33.398,0.787,1.042
20050712,004618,1138684,33.595318,-120.769188,14.445,33.396,0.787,1.050
20050712,004649,1138715,33.595401,-120.769303,14.447,33.394,0.787,1.058
20050712,004718,1138743,33.595563,-120.769500,14.452,33.393,0.853,1.190
20050712,004748,1138774,33.595751,-120.769753,14.462,33.390,0.815,1.131
20050712,004818,1138804,33.595923,-120.769940,14.468,33.393,0.825,1.129
20050712,004848,1138834,33.596041,-120.770121,14.470,33.394,0.820,1.120
20050712,004918,1138864,33.596155,-120.770253,14.468,33.398,0.809,1.094
20050712,004949,1138895,33.596226,-120.770373,14.472,33.396,0.793,1.073
20050712,005018,1138923,33.596345,-120.770498,14.477,33.392,0.793,1.062
20050712,005048,1138954,33.596511,-120.770688,14.485,33.390,0.831,1.138
20050712,005118,1138984,33.596761,-120.770921,14.491,33.393,0.777,1.039
20050712,005148,1139014,33.596986,-120.771200,14.494,33.395,0.798,1.074
20050712,005218,1139043,33.597151,-120.771438,14.496,33.396,0.760,0.999
20050712,005249,1139075,33.597286,-120.771605,14.488,33.403,0.798,1.066
20050712,005318,1139104,33.597415,-120.771726,14.489,33.399,0.809,1.084
20050712,005348,1139134,33.597513,-120.771861,14.490,33.396,0.793,1.057
20050712,005419,1139164,33.597685,-120.772056,14.492,33.397,0.798,1.061
20050712,005448,1139194,33.597886,-120.772283,14.490,33.399,0.804,1.075
20050712,005518,1139223,33.598036,-120.772428,14.492,33.395,0.793,1.047
20050712,005548,1139253,33.598118,-120.772576,14.498,33.392,0.825,1.124
20050712,005618,1139284,33.598193,-120.772690,14.500,33.393,0.798,1.084
20050712,005649,1139314,33.598286,-120.772816,14.500,33.396,0.798,1.093
20050712,005718,1139344,33.598430,-120.772940,14.505,33.394,0.798,1.092
20050712,005748,1139374,33.598548,-120.773101,14.507,33.398,0.766,1.028
20050712,005818,1139403,33.598705,-120.773281,14.502,33.397,0.831,1.165
20050712,005848,1139433,33.598875,-120.773453,14.502,33.396,0.777,1.082
20050712,005918,1139464,33.599060,-120.773668,14.501,33.396,0.787,1.105
20050712,005948,1139494,33.599185,-120.773836,14.496,33.399,0.798,1.121
20050712,010018,1139524,33.599301,-120.773963,14.495,33.395,0.793,1.095
20050712,010048,1139553,33.599370,-120.774095,14.497,33.395,0.771,1.059
20050712,010119,1139585,33.599470,-120.774251,14.494,33.397,0.766,1.079
20050712,010148,1139614,33.599626,-120.774431,14.495,33.394,0.787,1.111
20050712,010218,1139644,33.599841,-120.774645,14.497,33.394,0.771,1.069
20050712,010249,1139674,33.600041,-120.774828,14.499,33.393,0.771,1.061
20050712,010318,1139704,33.600145,-120.774931,14.501,33.393,0.749,1.029
20050712,010348,1139733,33.600261,-120.775033,14.498,33.397,0.787,1.114
20050712,010418,1139763,33.600460,-120.775098,14.495,33.395,0.755,1.018
20050712,010448,1139794,33.600718,-120.775018,14.492,33.395,0.782,1.067
20050712,010518,1139824,33.600923,-120.774648,14.489,33.399,0.744,0.995
20050712,010549,1139855,33.601061,-120.774136,14.485,33.399,0.771,1.033
20050712,010619,1139885,33.601196,-120.773583,14.479,33.416,0.755,1.007
20050712,010648,1139913,33.601366,-120.773000,14.473,33.417,0.749,0.989
20050712,010719,1139945,33.601531,-120.772403,14.460,33.414,0.798,1.089
20050712,010748,1139974,33.601695,-120.771771,14.447,33.416,0.777,1.055
20050712,010818,1140004,33.601815,-120.771136,14.439,33.416,0.782,1.075
20050712,010849,1140035,33.601995,-120.770536,14.417,33.424,0.842,1.205
20050712,010918,1140063,33.602148,-120.769935,14.367,33.450,0.858,1.220
20050712,010948,1140093,33.602273,-120.769371,14.328,33.445,0.864,1.260
20050712,011018,1140124,33.602355,-120.768830,14.301,33.431,0.917,1.371
20050712,011048,1140154,33.602480,-120.768343,14.287,33.419,0.896,1.337
20050712,011119,1140184,33.602578,-120.767831,14.282,33.414,0.907,1.461
20050712,011149,1140215,33.602686,-120.767365,14.282,33.411,0.945,1.461
20050712,011218,1140243,33.602835,-120.766903,14.281,33.410,0.961,1.616
20050712,011248,1140273,33.602906,-120.766423,14.281,33.420,1.031,1.707
20050712,011318,1140304,33.602975,-120.766055,14.281,33.415,1.009,1.711
20050712,011348,1140334,33.603075,-120.765591,14.281,33.418,1.171,2.131
20050712,011418,1140364,33.603300,-120.764998,14.279,33.424,1.144,1.893
20050712,011449,1140395,33.603485,-120.764281,14.279,33.430,1.246,2.062
20050712,011519,1140425,33.603846,-120.763215,14.265,33.436,1.343,2.458
20050712,011549,1140455,33.604395,-120.761816,14.252,33.444,1.668,3.383
20050712,011619,1140484,33.604978,-120.760228,14.212,33.477,2.023,4.192
20050712,011649,1140514,33.605613,-120.758730,14.143,33.511,2.397,5.972
20050712,011719,1140545,33.606208,-120.757171,14.085,33.512,2.718,6.438
20050712,011749,1140575,33.606805,-120.755678,14.067,33.489,2.655,7.116
20050712,011819,1140605,33.607443,-120.754063,14.061,33.484,2.655,7.120
20050712,011849,1140635,33.608053,-120.752546,14.053,33.482,2.754,6.922
20050712,011919,1140664,33.608715,-120.750970,14.032,33.488,2.817,7.630
20050712,011949,1140695,33.609281,-120.749436,14.041,33.477,3.047,8.289
20050712,012019,1140725,33.609930,-120.747840,14.071,33.465,3.016,8.151
20050712,012048,1140753,33.610513,-120.746335,14.085,33.476,3.005,8.533
20050712,012119,1140785,33.611141,-120.744781,14.089,33.488,2.974,7.877
20050712,012149,1140814,33.611801,-120.743155,14.086,33.500,2.880,7.590
20050712,012219,1140844,33.612433,-120.741566,14.093,33.496,2.833,7.518
20050712,012249,1140875,33.613048,-120.739976,14.095,33.497,2.718,6.960
20050712,012319,1140905,33.613660,-120.738375,14.086,33.506,2.560,6.758
20050712,012349,1140935,33.614321,-120.736865,14.073,33.504,2.702,7.182
20050712,012419,1140965,33.614950,-120.735223,14.073,33.496,2.545,6.767
20050712,012449,1140994,33.615585,-120.733671,14.075,33.498,2.497,5.949
20050712,012519,1141024,33.616178,-120.732120,14.071,33.494,2.503,6.329
20050712,012549,1141055,33.616865,-120.730588,14.061,33.493,2.503,6.404
20050712,012619,1141085,33.617451,-120.728976,14.052,33.487,2.461,6.302
20050712,012650,1141116,33.618085,-120.727413,14.048,33.488,2.608,6.656
20050712,012719,1141144,33.618721,-120.725871,14.043,33.483,2.608,6.610
20050712,012750,1141176,33.619355,-120.724271,14.042,33.476,2.623,6.928
20050712,012819,1141205,33.619945,-120.722753,14.041,33.474,2.697,7.104
20050712,012849,1141235,33.620571,-120.721196,14.044,33.471,2.655,7.103
20050712,012919,1141265,33.621180,-120.719641,14.044,33.466,2.660,6.982
20050712,012950,1141296,33.621806,-120.718093,14.040,33.469,2.545,6.247
20050712,013020,1141326,33.622425,-120.716588,14.041,33.466,2.602,6.555
20050712,013049,1141354,33.623003,-120.715091,14.048,33.460,2.545,6.358
20050712,013120,1141386,33.623670,-120.713503,14.058,33.454,2.455,6.312
20050712,013151,1141417,33.624266,-120.711933,14.077,33.446,2.192,5.117
20050712,013220,1141446,33.624921,-120.710415,14.114,33.425,1.939,4.478
20050712,013251,1141476,33.625555,-120.708866,14.150,33.422,1.811,4.056
20050712,013320,1141506,33.626196,-120.707298,14.174,33.419,1.694,3.620
20050712,013350,1141536,33.626843,-120.705731,14.188,33.428,1.636,3.501
20050712,013420,1141565,33.627493,-120.704191,14.201,33.426,1.716,3.751
20050712,013450,1141595,33.628155,-120.702663,14.212,33.426,1.694,3.655
20050712,013520,1141626,33.628786,-120.701125,14.221,33.425,1.727,3.713
20050712,013550,1141656,33.629420,-120.699565,14.225,33.427,1.822,4.074
20050712,013620,1141686,33.630061,-120.697995,14.234,33.431,1.822,3.878
20050712,013650,1141716,33.630703,-120.696443,14.245,33.433,1.854,4.068
20050712,013720,1141745,33.631380,-120.694900,14.249,33.431,1.769,3.896
20050712,013750,1141775,33.632028,-120.693370,14.255,33.436,1.769,3.868
20050712,013820,1141806,33.632686,-120.691831,14.258,33.438,1.843,4.121
20050712,013850,1141836,33.633356,-120.690263,14.257,33.437,1.912,4.327
20050712,013920,1141866,33.634021,-120.688693,14.249,33.445,1.976,4.525
20050712,013950,1141896,33.634696,-120.687146,14.239,33.442,1.912,4.318
20050712,014020,1141925,33.635363,-120.685585,14.234,33.445,1.891,4.110
20050712,014050,1141956,33.636030,-120.684026,14.229,33.441,1.912,4.316
20050712,014120,1141986,33.636738,-120.682495,14.221,33.444,1.827,4.038
20050712,014151,1142016,33.637421,-120.680943,14.218,33.442,1.865,4.153
20050712,014220,1142046,33.638071,-120.679376,14.212,33.444,1.822,3.922
20050712,014250,1142075,33.638763,-120.677831,14.217,33.438,1.668,3.536
20050712,014320,1142105,33.639420,-120.676256,14.220,33.440,1.827,4.028
20050712,014350,1142136,33.640108,-120.674708,14.213,33.444,1.902,4.262
20050712,014420,1142166,33.640781,-120.673160,14.211,33.446,1.833,4.045
20050712,014450,1142196,33.641436,-120.671580,14.209,33.447,1.960,4.387
20050712,014520,1142226,33.642158,-120.670048,14.208,33.445,1.838,4.054
20050712,014550,1142255,33.642828,-120.668470,14.204,33.445,1.939,4.366
20050712,014620,1142285,33.643528,-120.666903,14.199,33.451,2.071,4.795
20050712,014650,1142316,33.644198,-120.665306,14.186,33.454,2.134,5.001
20050712,014720,1142346,33.644888,-120.663733,14.152,33.467,2.250,5.387
20050712,014750,1142376,33.645561,-120.662126,14.125,33.469,2.118,4.811
20050712,014820,1142405,33.646245,-120.660560,14.106,33.465,2.334,5.651
20050712,014850,1142435,33.646925,-120.658988,14.081,33.465,2.229,5.279
20050712,014920,1142466,33.647625,-120.657426,14.051,33.476,2.581,6.533
20050712,014950,1142496,33.648286,-120.655860,14.026,33.473,2.550,6.162
20050712,015020,1142526,33.648968,-120.654303,14.009,33.469,2.765,7.222
20050712,015050,1142556,33.649641,-120.652725,14.004,33.465,2.890,7.702
20050712,015121,1142587,33.650348,-120.651088,14.006,33.461,3.058,8.343
20050712,015151,1142617,33.651010,-120.649581,14.002,33.461,2.964,7.938
20050712,015220,1142646,33.651710,-120.648000,13.994,33.469,3.318,9.378
20050712,015250,1142676,33.652398,-120.646436,13.980,33.472,3.339,9.447
20050712,015321,1142707,33.653080,-120.644845,13.969,33.466,3.058,8.277
20050712,015350,1142736,33.653776,-120.643273,13.953,33.471,3.052,8.239
20050712,015421,1142767,33.654493,-120.641643,13.938,33.458,3.011,8.080
20050712,015450,1142796,33.655160,-120.640118,13.927,33.470,2.964,7.918
20050712,015521,1142826,33.655898,-120.638505,13.915,33.468,2.859,7.486
20050712,015551,1142856,33.656581,-120.636938,13.912,33.463,3.162,8.633
20050712,015620,1142886,33.657258,-120.635420,13.913,33.464,3.230,8.902
20050712,015650,1142915,33.657931,-120.633818,13.899,33.470,2.979,7.907
20050712,015720,1142945,33.658651,-120.632270,13.897,33.463,3.037,8.141
20050712,015751,1142977,33.659356,-120.630645,13.948,33.438,3.609,10.449
20050712,015820,1143006,33.660030,-120.629173,13.971,33.470,3.942,11.913
20050712,015850,1143036,33.660705,-120.627643,13.970,33.491,4.133,12.772
20050712,015921,1143067,33.661408,-120.626060,13.968,33.503,4.329,13.654
20050712,015951,1143097,33.662096,-120.624501,13.956,33.515,4.345,13.718
20050712,020021,1143127,33.662735,-120.622983,13.948,33.511,4.489,14.351
20050712,020051,1143157,33.663446,-120.621370,13.942,33.509,4.665,15.124
20050712,020121,1143186,33.664076,-120.619806,13.952,33.502,4.536,14.498
20050712,020151,1143217,33.664708,-120.618251,13.979,33.493,4.505,14.394
20050712,020221,1143247,33.665386,-120.616698,14.002,33.498,4.293,13.339
20050712,020251,1143277,33.666050,-120.615151,14.012,33.507,4.324,13.411
20050712,020321,1143307,33.666695,-120.613588,14.019,33.512,4.495,14.258
20050712,020351,1143336,33.667368,-120.612025,14.034,33.515,4.541,14.478
20050712,020421,1143366,33.668021,-120.610443,14.044,33.510,4.464,14.037
20050712,020451,1143397,33.668685,-120.608860,14.046,33.516,4.453,13.961
20050712,020521,1143427,33.669351,-120.607291,14.037,33.514,4.505,14.163
20050712,020551,1143457,33.670023,-120.605725,14.029,33.524,4.639,14.816
20050712,020621,1143487,33.670655,-120.604125,14.028,33.521,4.562,14.421
20050712,020652,1143518,33.671343,-120.602576,14.022,33.522,4.804,15.553
20050712,020721,1143546,33.671975,-120.600958,14.012,33.527,4.788,15.412
20050712,020751,1143577,33.672648,-120.599353,14.014,33.523,4.814,15.598
20050712,020821,1143607,33.673300,-120.597733,14.009,33.521,4.891,15.890
20050712,020852,1143638,33.674005,-120.596140,14.001,33.529,4.788,15.394
20050712,020921,1143666,33.674636,-120.594511,13.990,33.526,4.876,15.790
20050712,020951,1143696,33.675303,-120.592860,13.981,33.526,4.871,15.774
20050712,021021,1143727,33.675998,-120.591245,13.974,33.524,4.861,15.682
20050712,021052,1143757,33.676650,-120.589621,13.952,33.528,4.953,16.081
20050712,021121,1143787,33.677311,-120.587983,13.954,33.517,4.969,16.126
20050712,021151,1143817,33.677970,-120.586358,13.953,33.512,4.948,15.971
20050712,021221,1143846,33.678618,-120.584723,13.947,33.519,4.917,15.805
20050712,021251,1143876,33.679276,-120.583098,13.943,33.519,5.128,16.790
20050712,021321,1143907,33.679933,-120.581486,13.942,33.516,4.927,15.779
20050712,021352,1143937,33.680581,-120.579865,13.943,33.510,4.938,15.785
20050712,021421,1143967,33.681228,-120.578223,13.945,33.509,5.035,16.229
20050712,021451,1143997,33.681851,-120.576591,13.930,33.522,5.015,16.082
20050712,021521,1144026,33.682498,-120.574970,13.941,33.501,5.015,16.105
20050712,021552,1144058,33.683140,-120.573331,13.993,33.479,4.515,13.739
20050712,021621,1144087,33.683781,-120.571690,13.992,33.503,4.515,13.698
20050712,021651,1144117,33.684406,-120.570040,13.976,33.520,4.675,14.401
20050712,021721,1144147,33.685078,-120.568421,13.955,33.527,4.809,14.999
20050712,021751,1144176,33.685668,-120.566800,13.928,33.532,4.788,14.757
20050712,021821,1144206,33.686285,-120.565181,13.907,33.529,4.927,15.468
20050712,021851,1144237,33.686900,-120.563553,13.912,33.516,4.768,14.697
20050712,021921,1144267,33.687530,-120.561933,13.944,33.502,4.371,12.927
20050712,021951,1144297,33.688135,-120.560295,14.021,33.482,3.838,10.638
20050712,022021,1144327,33.688796,-120.558688,14.059,33.499,3.365,8.761
20050712,022051,1144356,33.689433,-120.557041,14.081,33.509,3.282,8.425
20050712,022121,1144386,33.690093,-120.555401,14.088,33.520,3.313,8.521
20050712,022151,1144417,33.690731,-120.553733,14.081,33.533,3.490,9.179
20050712,022221,1144447,33.691406,-120.552113,14.073,33.534,3.729,10.113
20050712,022251,1144477,33.692068,-120.550491,14.064,33.536,3.771,10.254
20050712,022322,1144508,33.692701,-120.548851,14.056,33.533,3.936,10.908
20050712,022351,1144536,33.693366,-120.547263,14.043,33.537,3.895,10.724
20050712,022421,1144567,33.693995,-120.545660,14.025,33.535,4.061,11.345
20050712,022451,1144597,33.694663,-120.544071,14.000,33.538,4.365,12.622
20050712,022521,1144627,33.695330,-120.542470,13.976,33.533,4.345,12.485
20050712,022552,1144658,33.695991,-120.540860,13.958,33.526,4.428,12.816
20050712,022621,1144686,33.696645,-120.539260,13.939,33.526,4.458,12.902
20050712,022651,1144716,33.697301,-120.537686,13.928,33.518,4.433,12.686
20050712,022721,1144747,33.697971,-120.536080,13.920,33.510,4.443,12.802
20050712,022752,1144777,33.698626,-120.534461,13.913,33.505,4.752,14.111
20050712,022821,1144807,33.699300,-120.532866,13.908,33.503,4.963,15.045
20050712,022851,1144837,33.699961,-120.531275,13.907,33.499,4.747,14.044
20050712,022921,1144866,33.700605,-120.529681,13.905,33.496,4.819,14.299
20050712,022951,1144896,33.701258,-120.528101,13.897,33.501,4.850,14.428
20050712,023021,1144927,33.701916,-120.526506,13.886,33.497,4.840,14.339
20050712,023051,1144957,33.702555,-120.524896,13.876,33.501,4.933,14.706
20050712,023121,1144987,33.703196,-120.523290,13.858,33.504,4.917,14.630
20050712,023151,1145016,33.703845,-120.521700,13.832,33.512,5.267,16.164
20050712,023221,1145046,33.704443,-120.520088,13.808,33.509,5.061,15.126
20050712,023251,1145077,33.705101,-120.518525,13.787,33.511,5.113,15.368
20050712,023321,1145107,33.705735,-120.516936,13.751,33.515,4.799,13.961
20050712,023351,1145137,33.706386,-120.515350,13.717,33.515,4.706,13.518
20050712,023421,1145167,33.707035,-120.513761,13.695,33.507,4.526,12.755
20050712,023452,1145198,33.707686,-120.512163,13.668,33.508,4.200,11.387
20050712,023521,1145226,33.708313,-120.510565,13.612,33.530,4.809,13.853
20050712,023551,1145257,33.708971,-120.509008,13.549,33.546,5.667,17.524
20050712,023622,1145287,33.709588,-120.507463,13.526,33.527,6.138,19.739
20050712,023651,1145317,33.710220,-120.505905,13.507,33.515,6.153,19.819
20050712,023721,1145347,33.710850,-120.504328,13.496,33.510,6.112,19.477
20050712,023751,1145376,33.711495,-120.502785,13.475,33.516,6.327,20.279
20050712,023821,1145407,33.712116,-120.501213,13.445,33.525,6.485,21.147
20050712,023851,1145437,33.712743,-120.499665,13.404,33.546,6.480,21.033
20050712,023921,1145467,33.713366,-120.498131,13.370,33.545,6.464,20.918
20050712,023952,1145498,33.713950,-120.496551,13.349,33.539,6.260,19.830
20050712,024021,1145526,33.714573,-120.494998,13.333,33.535,6.372,20.297
20050712,024051,1145556,33.715176,-120.493448,13.315,33.551,6.730,22.060
20050712,024121,1145587,33.715811,-120.491918,13.290,33.557,6.347,20.134
20050712,024151,1145617,33.716430,-120.490378,13.273,33.554,6.679,21.666
20050712,024221,1145647,33.717036,-120.488831,13.279,33.553,6.750,21.977
20050712,024251,1145677,33.717626,-120.487298,13.265,33.559,7.015,23.019
20050712,024321,1145706,33.718231,-120.485755,13.257,33.562,7.096,23.731